����,���ϕ���(m/s),���ϕ���,�ő�u�ԕ���(m/s),�ő啗��������,�C��(��),���x(%),10���Ԉړ��ώZ�J��(mm),1���Ԉړ��ώZ�J��(mm),���J��(mm),�݌v�J��(mm)
2020-09-07T00:00:00+09:00,0.8,���쓌,2.7,��쓌,23.2,97.2,0,0,20.5,50
2020-09-07T00:01:00+09:00,0.9,��,2.7,��쓌,23.2,97.2,0,0,0,50
2020-09-07T00:02:00+09:00,1,��,2.7,��쓌,23.2,97.2,0,0,0,50
2020-09-07T00:03:00+09:00,1.1,��,2.7,��쓌,23.2,97.2,0,0,0,50
2020-09-07T00:04:00+09:00,1.1,��,2.3,���쓌,23.3,97.4,0,0,0,50
2020-09-07T00:05:00+09:00,1,��,2.3,���쓌,23.3,97.4,0,0,0,50
2020-09-07T00:06:00+09:00,1,��,2.3,���쓌,23.3,97.3,0,0,0,50
2020-09-07T00:07:00+09:00,0.9,��,2.3,���쓌,23.2,97.2,0,0,0,50
2020-09-07T00:08:00+09:00,0.9,��,2.3,���쓌,23.2,97,0,0,0,50
2020-09-07T00:09:00+09:00,0.8,��,2.3,���쓌,23.2,97.1,0,0,0,50
2020-09-07T00:10:00+09:00,0.7,��,2.3,���쓌,23.2,97.1,0,0,0,50
2020-09-07T00:11:00+09:00,0.6,��,2.3,���쓌,23.3,97.2,0,0,0,50
2020-09-07T00:12:00+09:00,0.5,��,2,��쓌,23.2,97.2,0,0,0,50
2020-09-07T00:13:00+09:00,0.3,��,1.9,��,23.2,97.1,0,0,0,50
2020-09-07T00:14:00+09:00,0.3,��,1.2,�쐼,23.1,97,0,0,0,50
2020-09-07T00:15:00+09:00,0.5,�쓌,1.4,���쐼,23.1,97,0,0,0,50
2020-09-07T00:16:00+09:00,0.5,�쐼,1.5,��,23.2,97.1,0,0,0,50
2020-09-07T00:17:00+09:00,0.6,���쐼,1.5,��,23.1,97,0,0,0,50
2020-09-07T00:18:00+09:00,0.7,�쐼,1.5,��,23.1,97,0,0,0,50
2020-09-07T00:19:00+09:00,0.7,�쐼,1.5,��,23.1,97,0,0,0,50
2020-09-07T00:20:00+09:00,0.8,�쐼,1.5,��,23.1,97.1,0,0,0,50
2020-09-07T00:21:00+09:00,0.9,�쐼,1.5,��,23.1,97.1,0,0,0,50
2020-09-07T00:22:00+09:00,1,�쐼,1.5,��,23.1,97.1,0,0,0,50
2020-09-07T00:23:00+09:00,1,�쐼,1.5,��,23.1,97,0,0,0,50
2020-09-07T00:24:00+09:00,1,�쐼,1.5,��,23.1,97.1,0,0,0,50
2020-09-07T00:25:00+09:00,0.9,���쐼,1.5,��,23.1,97.2,0,0,0,50
2020-09-07T00:26:00+09:00,0.9,���쐼,1.4,��쐼,23.2,97.2,0,0,0,50
2020-09-07T00:27:00+09:00,0.9,���쐼,1.4,��쐼,23.2,97.2,0,0,0,50
2020-09-07T00:28:00+09:00,0.9,���쐼,1.4,��쐼,23.1,97,0,0,0,50
2020-09-07T00:29:00+09:00,0.9,���쐼,1.4,��쐼,23,96.9,0,0,0,50
2020-09-07T00:30:00+09:00,0.9,���쐼,1.7,�쐼,23,96.9,0,0,0,50
2020-09-07T00:31:00+09:00,0.9,���쐼,1.7,�쐼,23,96.9,0,0,0,50
2020-09-07T00:32:00+09:00,0.9,���쐼,1.7,�쐼,23,97,0,0,0,50
2020-09-07T00:33:00+09:00,1,���쐼,1.9,��쐼,23.1,97.2,0,0,0,50
2020-09-07T00:34:00+09:00,1.1,�쐼,2,��쐼,23.1,97.3,0,0,0,50
2020-09-07T00:35:00+09:00,1.2,�쐼,2,��쐼,23.1,97.1,0,0,0,50
2020-09-07T00:36:00+09:00,1.2,�쐼,2,��쐼,23.1,97.1,0,0,0,50
2020-09-07T00:37:00+09:00,1.1,�쐼,2,��쐼,23.1,97.1,0,0,0,50
2020-09-07T00:38:00+09:00,1.1,��쐼,2,��쐼,23.1,97.1,0,0,0,50
2020-09-07T00:39:00+09:00,1.1,��쐼,2,��쐼,23.1,97.3,0,0,0,50
2020-09-07T00:40:00+09:00,1.1,��쐼,2,��쐼,23.1,97.2,0,0,0,50
2020-09-07T00:41:00+09:00,1,��쐼,2,��쐼,23.5,97.6,0,0,0,50
2020-09-07T00:42:00+09:00,1,��쐼,2,��쐼,23.3,97.4,0,0,0,50
2020-09-07T00:43:00+09:00,0.9,��쐼,2,��쐼,23.2,97.1,0,0,0,50
2020-09-07T00:44:00+09:00,0.7,��쐼,1.8,�쐼,23.2,96.9,0,0,0,50
2020-09-07T00:45:00+09:00,0.7,��쐼,1.5,��,23.2,97,0,0,0,50
2020-09-07T00:46:00+09:00,0.7,��쐼,1.5,��,23.2,97,0,0,0,50
2020-09-07T00:47:00+09:00,0.8,��쐼,1.7,��,23.2,96.9,0,0,0,50
2020-09-07T00:48:00+09:00,0.8,��쐼,1.9,��,23.2,97,0,0,0,50
2020-09-07T00:49:00+09:00,0.9,��쐼,1.9,��,23.2,96.9,0,0,0,50
2020-09-07T00:50:00+09:00,0.9,��쐼,2.1,�쐼,23.1,96.8,0,0,0,50
2020-09-07T00:51:00+09:00,1,��쐼,2.6,���쐼,23.1,96.7,0,0,0,50
2020-09-07T00:52:00+09:00,1.1,��쐼,2.8,���쐼,23.3,97.1,0,0,0,50
2020-09-07T00:53:00+09:00,1.2,��쐼,2.8,���쐼,23.3,97.2,0,0,0,50
2020-09-07T00:54:00+09:00,1.3,��쐼,2.8,���쐼,23.4,97.2,0,0,0,50
2020-09-07T00:55:00+09:00,1.2,��쐼,2.8,���쐼,23.4,97.1,0,0,0,50
2020-09-07T00:56:00+09:00,1.2,��쐼,2.8,���쐼,23.3,96.9,0,0,0,50
2020-09-07T00:57:00+09:00,1.1,��쐼,2.8,���쐼,23.3,96.8,0,0,0,50
2020-09-07T00:58:00+09:00,1,��쐼,2.8,���쐼,23.3,96.9,0,0,0,50
2020-09-07T00:59:00+09:00,1,��,2.8,���쐼,23.3,96.9,0,0,0,50
2020-09-07T01:00:00+09:00,0.9,�쓌,2.8,���쐼,23.3,96.9,0,0,0,50
2020-09-07T01:01:00+09:00,0.8,���쓌,2.8,���쐼,23.3,96.9,0,0,0,50
2020-09-07T01:02:00+09:00,0.8,���쓌,1.8,���쐼,23.3,96.8,0,0,0,50
2020-09-07T01:03:00+09:00,0.7,��,1.6,�쐼,23.3,96.8,0,0,0,50
2020-09-07T01:04:00+09:00,0.7,��,1.4,���쓌,23.3,96.9,0,0,0,50
2020-09-07T01:05:00+09:00,0.8,��,1.6,��,23.3,96.9,0,0,0,50
2020-09-07T01:06:00+09:00,0.9,��,1.6,��,23.3,97,0,0,0,50
2020-09-07T01:07:00+09:00,0.9,��,1.6,��,23.3,97,0,0,0,50
2020-09-07T01:08:00+09:00,1,��,1.7,���쓌,23.3,97,0,0,0,50
2020-09-07T01:09:00+09:00,1,��,1.7,���쓌,23.3,97,0,0,0,50
2020-09-07T01:10:00+09:00,1.1,��,1.8,���쓌,23.3,97,0,0,0,50
2020-09-07T01:11:00+09:00,1.1,��,1.8,���쓌,23.3,97,0,0,0,50
2020-09-07T01:12:00+09:00,1,��,1.8,���쓌,23.3,97.1,0,0,0,50
2020-09-07T01:13:00+09:00,1.1,��,1.8,���쓌,23.3,97,0,0,0,50
2020-09-07T01:14:00+09:00,1.1,��,1.8,���쓌,23.3,97,0,0,0,50
2020-09-07T01:15:00+09:00,1.1,��,1.8,���쓌,23.3,97,0,0,0,50
2020-09-07T01:16:00+09:00,1.1,��,1.8,���쓌,23.3,97,0,0,0,50
2020-09-07T01:17:00+09:00,1.1,��,1.8,���쓌,23.3,97.1,0,0,0,50
2020-09-07T01:18:00+09:00,1,��,1.8,���쓌,23.3,97.1,0,0,0,50
2020-09-07T01:19:00+09:00,0.9,��,1.8,���쓌,23.3,97.2,0,0,0,50
2020-09-07T01:20:00+09:00,0.8,��,1.7,��,23.3,97.1,0,0,0,50
2020-09-07T01:21:00+09:00,0.9,��,1.7,��,23.2,97,0,0,0,50
2020-09-07T01:22:00+09:00,0.9,��,1.7,��,23.2,97,0,0,0,50
2020-09-07T01:23:00+09:00,0.9,��,1.7,��,23.2,97,0,0,0,50
2020-09-07T01:24:00+09:00,0.9,��,2.2,���쓌,23.2,97.1,0,0,0,50
2020-09-07T01:25:00+09:00,1,��,2.2,���쓌,23.2,97.1,0,0,0,50
2020-09-07T01:26:00+09:00,0.9,��,2.2,���쓌,23.2,97.1,0,0,0,50
2020-09-07T01:27:00+09:00,1,��,2.2,���쓌,23.2,97.1,0,0,0,50
2020-09-07T01:28:00+09:00,1.1,���k��,2.2,���쓌,23.2,97,0,0,0,50
2020-09-07T01:29:00+09:00,1.2,��,2.7,���쓌,23.2,97.1,0,0,0,50
2020-09-07T01:30:00+09:00,1.3,��,2.7,���쓌,23.2,97.1,0.5,0.5,0.5,50.5
2020-09-07T01:31:00+09:00,1.4,��,2.7,���쓌,23.2,97,0.5,0.5,0.5,50.5
2020-09-07T01:32:00+09:00,1.4,��,2.7,���쓌,23.1,97,0.5,0.5,0.5,50.5
2020-09-07T01:33:00+09:00,1.4,��,2.7,���쓌,23.2,97,0.5,0.5,0.5,50.5
2020-09-07T01:34:00+09:00,1.4,���k��,2.7,���쓌,23.2,97.1,0.5,0.5,0.5,50.5
2020-09-07T01:35:00+09:00,1.5,���k��,2.7,���쓌,23.2,97.1,0.5,0.5,0.5,50.5
2020-09-07T01:36:00+09:00,1.5,���k��,2.7,���쓌,23.2,97.1,0.5,0.5,0.5,50.5
2020-09-07T01:37:00+09:00,1.4,���k��,2.7,���쓌,23.2,97,0.5,0.5,0.5,50.5
2020-09-07T01:38:00+09:00,1.4,���k��,2.7,���쓌,23.2,96.9,0.5,0.5,0.5,50.5
2020-09-07T01:39:00+09:00,1.4,���k��,2.3,���쓌,23.2,97,0.5,0.5,0.5,50.5
2020-09-07T01:40:00+09:00,1.3,���k��,2.2,���k��,23.2,97,0,0.5,0.5,50.5
2020-09-07T01:41:00+09:00,1.2,���k��,2.1,���k��,23.2,97,0,0.5,0.5,50.5
2020-09-07T01:42:00+09:00,1.1,���k��,2.1,���k��,23.2,97,0,0.5,0.5,50.5
2020-09-07T01:43:00+09:00,1.1,���k��,2.1,���k��,23.2,96.9,0,0.5,0.5,50.5
2020-09-07T01:44:00+09:00,1.1,���k��,2,���k��,23.2,96.9,0,0.5,0.5,50.5
2020-09-07T01:45:00+09:00,1,���k��,1.9,���k��,23.2,96.9,0,0.5,0.5,50.5
2020-09-07T01:46:00+09:00,0.9,���k��,1.9,���k��,23.3,97.1,0,0.5,0.5,50.5
2020-09-07T01:47:00+09:00,0.9,���k��,1.9,���k��,23.2,96.9,0,0.5,0.5,50.5
2020-09-07T01:48:00+09:00,0.9,���k��,1.9,���k��,23.2,96.8,0,0.5,0.5,50.5
2020-09-07T01:49:00+09:00,1,���k��,1.9,���k��,23.2,96.8,0,0.5,0.5,50.5
2020-09-07T01:50:00+09:00,1,�k��,1.9,���k��,23.2,96.8,0,0.5,0.5,50.5
2020-09-07T01:51:00+09:00,1,�k��,1.9,���k��,23.3,96.8,0,0.5,0.5,50.5
2020-09-07T01:52:00+09:00,1,�k��,1.9,���k��,23.3,96.8,0,0.5,0.5,50.5
2020-09-07T01:53:00+09:00,1,���k��,1.9,���k��,23.5,97,0,0.5,0.5,50.5
2020-09-07T01:54:00+09:00,0.9,���k��,1.8,�k�k��,23.5,97,0,0.5,0.5,50.5
2020-09-07T01:55:00+09:00,0.9,�k��,2.2,�k�k��,23.4,96.6,0,0.5,0.5,50.5
2020-09-07T01:56:00+09:00,0.9,�k��,2.2,�k�k��,23.4,96.6,0,0.5,0.5,50.5
2020-09-07T01:57:00+09:00,0.9,���k��,2.2,�k�k��,23.4,96.6,0,0.5,0.5,50.5
2020-09-07T01:58:00+09:00,0.8,�k��,2.2,�k�k��,23.4,96.7,0,0.5,0.5,50.5
2020-09-07T01:59:00+09:00,0.8,�k��,2.2,�k�k��,23.4,96.7,0,0.5,0.5,50.5
2020-09-07T02:00:00+09:00,0.7,�k��,2.2,�k�k��,23.4,96.6,0,0.5,0.5,50.5
2020-09-07T02:01:00+09:00,0.8,�k��,2.2,�k�k��,23.4,96.6,0,0.5,0.5,50.5
2020-09-07T02:02:00+09:00,0.9,�k�k��,2.8,�k,23.4,96.6,0,0.5,0.5,50.5
2020-09-07T02:03:00+09:00,1,�k�k��,2.8,�k,23.4,96.7,0,0.5,0.5,50.5
2020-09-07T02:04:00+09:00,1,�k,2.8,�k,23.4,96.6,0,0.5,0.5,50.5
2020-09-07T02:05:00+09:00,1,�k,2.8,�k,23.5,96.6,0,0.5,0.5,50.5
2020-09-07T02:06:00+09:00,1,�k�k��,2.8,�k,23.5,96.6,0,0.5,0.5,50.5
2020-09-07T02:07:00+09:00,1.2,�k,2.8,�k,23.5,96.6,0,0.5,0.5,50.5
2020-09-07T02:08:00+09:00,1.3,�k�k��,2.8,�k,23.5,96.5,0,0.5,0.5,50.5
2020-09-07T02:09:00+09:00,1.3,�k�k��,2.8,�k,23.6,96.4,0,0.5,0.5,50.5
2020-09-07T02:10:00+09:00,1.3,�k�k��,2.8,�k,23.6,96.4,0,0.5,0.5,50.5
2020-09-07T02:11:00+09:00,1.4,�k�k��,2.8,�k,23.6,96.3,0,0.5,0.5,50.5
2020-09-07T02:12:00+09:00,1.3,�k�k��,2.8,�k�k��,23.7,96.2,0,0.5,0.5,50.5
2020-09-07T02:13:00+09:00,1.2,�k�k��,2.8,�k�k��,23.7,96.1,0,0.5,0.5,50.5
2020-09-07T02:14:00+09:00,1.1,�k�k��,2.8,�k�k��,23.7,96,0,0.5,0.5,50.5
2020-09-07T02:15:00+09:00,1.2,�k�k��,2.8,�k�k��,23.7,95.9,0,0.5,0.5,50.5
2020-09-07T02:16:00+09:00,1.2,�k�k��,2.8,�k�k��,23.7,95.9,0,0.5,0.5,50.5
2020-09-07T02:17:00+09:00,1.1,�k�k��,2.8,�k�k��,23.7,95.9,0,0.5,0.5,50.5
2020-09-07T02:18:00+09:00,1.1,�k��,2.8,�k�k��,23.8,95.8,0,0.5,0.5,50.5
2020-09-07T02:19:00+09:00,1,�k��,2.8,�k�k��,23.8,95.8,0,0.5,0.5,50.5
2020-09-07T02:20:00+09:00,1,�k��,2.8,�k�k��,23.7,95.7,0,0.5,0.5,50.5
2020-09-07T02:21:00+09:00,0.8,���k��,1.9,�k�k��,23.6,95.9,0,0.5,0.5,50.5
2020-09-07T02:22:00+09:00,0.8,��,1.7,�쓌,23.5,95.9,0,0.5,0.5,50.5
2020-09-07T02:23:00+09:00,0.7,�쓌,1.7,�쓌,23.5,96,0,0.5,0.5,50.5
2020-09-07T02:24:00+09:00,0.8,��,1.7,�쓌,23.5,96.1,0,0.5,0.5,50.5
2020-09-07T02:25:00+09:00,0.7,�쓌,1.7,�쓌,23.6,96.3,0,0.5,0.5,50.5
2020-09-07T02:26:00+09:00,0.7,�쓌,1.7,�쓌,23.5,96.2,0,0.5,0.5,50.5
2020-09-07T02:27:00+09:00,0.8,�쓌,2.2,�k��,23.5,96.4,0,0.5,0.5,50.5
2020-09-07T02:28:00+09:00,0.9,�쓌,3.2,�k��,23.5,96.4,0,0.5,0.5,50.5
2020-09-07T02:29:00+09:00,1,���쓌,3.2,�k��,23.6,96.5,0,0.5,0.5,50.5
2020-09-07T02:30:00+09:00,1,���쓌,3.2,�k��,23.7,96.7,0,0,0.5,50.5
2020-09-07T02:31:00+09:00,1.1,���쓌,3.2,�k��,23.6,96.3,0,0,0.5,50.5
2020-09-07T02:32:00+09:00,1.1,���쓌,3.2,�k��,23.6,96.3,0,0,0.5,50.5
2020-09-07T02:33:00+09:00,1.1,���쓌,3.2,�k��,23.5,96.4,0,0,0.5,50.5
2020-09-07T02:34:00+09:00,1.2,��,3.2,�k��,23.6,96.5,0,0,0.5,50.5
2020-09-07T02:35:00+09:00,1.2,��,3.2,�k��,23.7,96.5,0,0,0.5,50.5
2020-09-07T02:36:00+09:00,1.1,���k��,3.2,�k��,23.8,96.5,0,0,0.5,50.5
2020-09-07T02:37:00+09:00,1,��,3.2,�k��,23.8,96.2,0,0,0.5,50.5
2020-09-07T02:38:00+09:00,0.9,��,2.6,���k��,23.8,96.1,0,0,0.5,50.5
2020-09-07T02:39:00+09:00,0.9,���쓌,2.1,��쓌,23.7,96,0,0,0.5,50.5
2020-09-07T02:40:00+09:00,0.9,���쓌,2.1,��쓌,23.7,96.2,0,0,0.5,50.5
2020-09-07T02:41:00+09:00,0.8,��,2.1,��쓌,23.8,96.3,0,0,0.5,50.5
2020-09-07T02:42:00+09:00,0.8,��,2.1,��쓌,23.9,96.2,0,0,0.5,50.5
2020-09-07T02:43:00+09:00,0.9,���k��,2.1,��쓌,23.9,96.1,0,0,0.5,50.5
2020-09-07T02:44:00+09:00,0.8,���k��,2.1,��쓌,23.9,95.8,0,0,0.5,50.5
2020-09-07T02:45:00+09:00,0.8,��,2.1,��쓌,23.9,95.6,0,0,0.5,50.5
2020-09-07T02:46:00+09:00,0.9,��,2.1,��쓌,23.8,95.5,0,0,0.5,50.5
2020-09-07T02:47:00+09:00,0.9,���k��,2.1,��쓌,23.8,95.6,0,0,0.5,50.5
2020-09-07T02:48:00+09:00,0.8,���k��,1.6,��쐼,23.9,95.7,0,0,0.5,50.5
2020-09-07T02:49:00+09:00,0.8,���k��,1.7,�k��,24,95.7,0,0,0.5,50.5
2020-09-07T02:50:00+09:00,0.9,���k��,1.9,�k��,24.1,95.5,0,0,0.5,50.5
2020-09-07T02:51:00+09:00,1,���k��,1.9,�k��,24,95.2,0,0,0.5,50.5
2020-09-07T02:52:00+09:00,1,�k��,2.2,�k�k��,24,95.2,0,0,0.5,50.5
2020-09-07T02:53:00+09:00,1.1,�k��,2.2,�k�k��,24,95.2,0,0,0.5,50.5
2020-09-07T02:54:00+09:00,1.2,�k��,2.2,�k�k��,23.9,95.3,0,0,0.5,50.5
2020-09-07T02:55:00+09:00,1.2,�k��,2.2,�k�k��,23.8,95.5,0,0,0.5,50.5
2020-09-07T02:56:00+09:00,1.1,�k��,2.2,�k�k��,23.9,95.7,0,0,0.5,50.5
2020-09-07T02:57:00+09:00,1.1,�k��,2.2,�k�k��,24,95.9,0,0,0.5,50.5
2020-09-07T02:58:00+09:00,1.1,�k��,2.2,�k�k��,24,95.9,0,0,0.5,50.5
2020-09-07T02:59:00+09:00,1.1,�k�k��,2.2,�k�k��,23.9,95.7,0,0,0.5,50.5
2020-09-07T03:00:00+09:00,1,�k,2.2,�k�k��,23.8,95.8,0,0,0.5,50.5
2020-09-07T03:01:00+09:00,0.9,�k�k��,2.2,�k�k��,23.9,95.9,0,0,0.5,50.5
2020-09-07T03:02:00+09:00,0.8,�k,1.9,�k�k��,23.9,96,0,0,0.5,50.5
2020-09-07T03:03:00+09:00,0.7,�k�k��,1.7,�k�k��,24,96,0,0,0.5,50.5
2020-09-07T03:04:00+09:00,0.8,�k�k��,2.2,�k��,24.1,95.8,0,0,0.5,50.5
2020-09-07T03:05:00+09:00,0.8,�k�k��,2.2,�k��,24.3,95.5,0,0,0.5,50.5
2020-09-07T03:06:00+09:00,0.8,�k�k��,2.2,�k��,24.5,94.8,0,0,0.5,50.5
2020-09-07T03:07:00+09:00,0.9,�k,2.2,�k��,24.6,93.9,0,0,0.5,50.5
2020-09-07T03:08:00+09:00,1,�k�k��,2.6,�k��,24.5,93.3,0,0,0.5,50.5
2020-09-07T03:09:00+09:00,1.1,�k��,2.6,�k��,24.4,93.4,0,0,0.5,50.5
2020-09-07T03:10:00+09:00,1.3,�k��,3.7,��,24.4,93.8,0,0,0.5,50.5
2020-09-07T03:11:00+09:00,1.5,�k��,4.1,���k��,24.7,93.4,0,0,0.5,50.5
2020-09-07T03:12:00+09:00,1.7,�k��,4.1,���k��,24.9,91.5,0,0,0.5,50.5
2020-09-07T03:13:00+09:00,1.7,���k��,4.1,���k��,24.6,90.9,0,0,0.5,50.5
2020-09-07T03:14:00+09:00,1.8,���k��,4.1,���k��,24.5,92,0,0,0.5,50.5
2020-09-07T03:15:00+09:00,1.8,���k��,4.1,���k��,24.3,92.9,0,0,0.5,50.5
2020-09-07T03:16:00+09:00,1.7,���k��,4.1,���k��,24.6,93.4,0,0,0.5,50.5
2020-09-07T03:17:00+09:00,1.7,���k��,4.1,���k��,24.8,92.4,0,0,0.5,50.5
2020-09-07T03:18:00+09:00,1.7,���k��,4.1,���k��,25.2,90.7,0,0,0.5,50.5
2020-09-07T03:19:00+09:00,1.7,���k��,4.1,���k��,25.2,89.3,0,0,0.5,50.5
2020-09-07T03:20:00+09:00,1.6,���k��,4.1,���k��,25.1,89.1,0,0,0.5,50.5
2020-09-07T03:21:00+09:00,1.5,���k��,3.4,��쐼,25.1,89.4,0,0,0.5,50.5
2020-09-07T03:22:00+09:00,1.3,���k��,3.4,��쐼,25.2,88.9,0,0,0.5,50.5
2020-09-07T03:23:00+09:00,1.3,���k��,3.4,��쐼,25.3,88.2,0,0,0.5,50.5
2020-09-07T03:24:00+09:00,1.2,���k��,2.6,��쐼,25.3,88.1,0,0,0.5,50.5
2020-09-07T03:25:00+09:00,1.3,�k��,2.5,�k�k��,25.1,88.3,0,0,0.5,50.5
2020-09-07T03:26:00+09:00,1.5,�k��,6,�k�k��,25.1,88.8,0,0,0.5,50.5
2020-09-07T03:27:00+09:00,1.7,�k��,6,�k�k��,25.5,88.4,0,0,0.5,50.5
2020-09-07T03:28:00+09:00,1.7,�k��,6,�k�k��,25.7,86.8,0,0,0.5,50.5
2020-09-07T03:29:00+09:00,1.8,�k��,6,�k�k��,25.6,86.4,0,0,0.5,50.5
2020-09-07T03:30:00+09:00,1.7,���k��,6,�k�k��,25.7,86.2,0,0,0.5,50.5
2020-09-07T03:31:00+09:00,1.7,���k��,6,�k�k��,25.8,85.6,0,0,0.5,50.5
2020-09-07T03:32:00+09:00,1.7,���k��,6,�k�k��,25.8,85.1,0,0,0.5,50.5
2020-09-07T03:33:00+09:00,1.8,���k��,6,�k�k��,25.7,85.1,0,0,0.5,50.5
2020-09-07T03:34:00+09:00,1.7,��,6,�k�k��,25.7,85.2,0,0,0.5,50.5
2020-09-07T03:35:00+09:00,1.7,���쓌,6,�k�k��,26,84.6,0,0,0.5,50.5
2020-09-07T03:36:00+09:00,1.8,���쓌,5.4,���쓌,26.3,83.3,0,0,0.5,50.5
2020-09-07T03:37:00+09:00,1.7,���쓌,5.4,���쓌,26.3,82.8,0,0,0.5,50.5
2020-09-07T03:38:00+09:00,1.8,�쓌,5.4,���쓌,26.3,82.7,0,0,0.5,50.5
2020-09-07T03:39:00+09:00,1.8,�쓌,5.4,���쓌,26.4,82.2,0,0,0.5,50.5
2020-09-07T03:40:00+09:00,2.1,�쓌,5.6,�쓌,26.6,81.4,0,0,0.5,50.5
2020-09-07T03:41:00+09:00,2.1,�쓌,5.6,�쓌,26.5,80.8,0,0,0.5,50.5
2020-09-07T03:42:00+09:00,2.2,���쓌,5.6,�쓌,26.5,80.9,0,0,0.5,50.5
2020-09-07T03:43:00+09:00,2.3,���쓌,5.6,�쓌,26.6,80.5,0,0,0.5,50.5
2020-09-07T03:44:00+09:00,2.4,���쓌,5.6,�쓌,26.7,80.2,0,0,0.5,50.5
2020-09-07T03:45:00+09:00,2.6,��,5.6,�쓌,26.7,80.1,0,0,0.5,50.5
2020-09-07T03:46:00+09:00,2.6,��,5.6,�쓌,26.7,79.7,0,0,0.5,50.5
2020-09-07T03:47:00+09:00,2.7,��,5.6,�쓌,26.8,79.3,0,0,0.5,50.5
2020-09-07T03:48:00+09:00,2.8,��,5.6,�쓌,27,78.6,0,0,0.5,50.5
2020-09-07T03:49:00+09:00,2.9,��,5.9,���쓌,26.9,78.3,0,0,0.5,50.5
2020-09-07T03:50:00+09:00,2.9,��,6,���쓌,26.8,78.8,0,0,0.5,50.5
2020-09-07T03:51:00+09:00,3,��,6,���쓌,26.8,78.7,0,0,0.5,50.5
2020-09-07T03:52:00+09:00,2.9,��,6,���쓌,26.7,79.1,0,0,0.5,50.5
2020-09-07T03:53:00+09:00,2.9,��,6,���쓌,26.8,79.3,0,0,0.5,50.5
2020-09-07T03:54:00+09:00,2.9,��,6,���쓌,26.7,79.3,0,0,0.5,50.5
2020-09-07T03:55:00+09:00,2.9,��,6.9,��쓌,26.8,79.4,0,0,0.5,50.5
2020-09-07T03:56:00+09:00,3,��,6.9,��쓌,26.8,79.1,0,0,0.5,50.5
2020-09-07T03:57:00+09:00,2.9,��,6.9,��쓌,27,78.5,0,0,0.5,50.5
2020-09-07T03:58:00+09:00,3,��,6.9,��쓌,26.7,79.1,0,0,0.5,50.5
2020-09-07T03:59:00+09:00,2.7,��,6.9,��쓌,26.5,79.9,0,0,0.5,50.5
2020-09-07T04:00:00+09:00,2.5,��,6.9,��쓌,26.5,80.4,0,0,0.5,50.5
2020-09-07T04:01:00+09:00,2.8,��,7.2,���쓌,26.6,80.3,0,0,0.5,50.5
2020-09-07T04:02:00+09:00,3,���쓌,7.2,���쓌,26.5,80.7,0,0,0.5,50.5
2020-09-07T04:03:00+09:00,2.9,���쓌,7.2,���쓌,26.4,81.3,0,0,0.5,50.5
2020-09-07T04:04:00+09:00,2.8,���쓌,7.2,���쓌,26.3,81.7,0,0,0.5,50.5
2020-09-07T04:05:00+09:00,2.6,�쓌,7.2,���쓌,26.3,82.3,0,0,0.5,50.5
2020-09-07T04:06:00+09:00,2.7,�쓌,8.5,��쓌,26.4,82.1,0,0,0.5,50.5
2020-09-07T04:07:00+09:00,2.7,�쓌,8.5,��쓌,26.6,81.2,0,0,0.5,50.5
2020-09-07T04:08:00+09:00,2.8,�쓌,8.5,��쓌,26.6,81.1,0,0,0.5,50.5
2020-09-07T04:09:00+09:00,2.8,���쓌,8.5,��쓌,26.5,81.3,0,0,0.5,50.5
2020-09-07T04:10:00+09:00,2.7,���쓌,8.5,��쓌,26.4,81.7,0,0,0.5,50.5
2020-09-07T04:11:00+09:00,2.3,���쓌,8.5,��쓌,26.3,82,0,0,0.5,50.5
2020-09-07T04:12:00+09:00,2.2,���쓌,8.5,��쓌,26.2,82.6,0,0,0.5,50.5
2020-09-07T04:13:00+09:00,2.1,��,8.5,��쓌,26.1,83.3,0,0,0.5,50.5
2020-09-07T04:14:00+09:00,2,��,8.5,��쓌,26,83.8,0,0,0.5,50.5
2020-09-07T04:15:00+09:00,1.9,��,8.5,��쓌,26,84.1,0,0,0.5,50.5
2020-09-07T04:16:00+09:00,1.6,��,5.4,���쓌,26.2,83.8,0,0,0.5,50.5
2020-09-07T04:17:00+09:00,1.3,��,4.9,���쓌,26.3,83.6,0,0,0.5,50.5
2020-09-07T04:18:00+09:00,1.2,���k��,3.1,�k�k��,26.3,83.2,0,0,0.5,50.5
2020-09-07T04:19:00+09:00,1.2,���k��,3.1,�k�k��,26.2,83.2,0,0,0.5,50.5
2020-09-07T04:20:00+09:00,1.1,��,3.1,�k�k��,26.1,83.4,0,0,0.5,50.5
2020-09-07T04:21:00+09:00,1.1,��,3.1,�k�k��,26,84.3,0,0,0.5,50.5
2020-09-07T04:22:00+09:00,1.1,��,3.1,�k�k��,25.9,84.7,0,0,0.5,50.5
2020-09-07T04:23:00+09:00,1.1,���쓌,3.1,�k�k��,26,84.7,0,0,0.5,50.5
2020-09-07T04:24:00+09:00,1.2,���쓌,3.1,�k�k��,26,84.6,0,0,0.5,50.5
2020-09-07T04:25:00+09:00,1.2,���쓌,3.1,�k�k��,26.1,84.6,0,0,0.5,50.5
2020-09-07T04:26:00+09:00,1.2,���쓌,3.1,�k�k��,26.1,84.2,0,0,0.5,50.5
2020-09-07T04:27:00+09:00,1.3,��,3.1,�k�k��,26.1,83.8,0,0,0.5,50.5
2020-09-07T04:28:00+09:00,1.3,��,2.8,�k��,26,84.1,0,0,0.5,50.5
2020-09-07T04:29:00+09:00,1.4,��,2.8,�k��,26,84.2,0,0,0.5,50.5
2020-09-07T04:30:00+09:00,1.5,��,2.8,�k��,26,84.3,0,0,0.5,50.5
2020-09-07T04:31:00+09:00,1.4,���k��,2.8,�k��,26,84.3,0,0,0.5,50.5
2020-09-07T04:32:00+09:00,1.3,���k��,2.8,�k��,26,84.2,0,0,0.5,50.5
2020-09-07T04:33:00+09:00,1.3,���k��,2.8,�k��,26,84.1,0,0,0.5,50.5
2020-09-07T04:34:00+09:00,1.4,���k��,2.8,�k��,26,84.2,0,0,0.5,50.5
2020-09-07T04:35:00+09:00,1.4,�k��,2.8,�k��,25.9,84.4,0,0,0.5,50.5
2020-09-07T04:36:00+09:00,1.3,�k��,2.8,�k��,25.9,84.5,0,0,0.5,50.5
2020-09-07T04:37:00+09:00,1.2,�k��,2.8,�k��,26,84.3,0,0,0.5,50.5
2020-09-07T04:38:00+09:00,1.1,�k��,2.7,�k��,26.1,84.1,0,0,0.5,50.5
2020-09-07T04:39:00+09:00,1,�k��,2.4,�k�k��,26.1,83.8,0,0,0.5,50.5
2020-09-07T04:40:00+09:00,1,�k��,2.4,�k�k��,26.1,83.5,0,0,0.5,50.5
2020-09-07T04:41:00+09:00,1.2,�k��,2.6,�k�k��,26,83.6,0,0,0.5,50.5
2020-09-07T04:42:00+09:00,1.3,�k��,2.7,�k��,25.9,84.1,0,0,0.5,50.5
2020-09-07T04:43:00+09:00,1.4,�k��,2.7,�k��,25.8,84.6,0,0,0.5,50.5
2020-09-07T04:44:00+09:00,1.4,�k��,2.7,�k��,25.9,84.8,0,0,0.5,50.5
2020-09-07T04:45:00+09:00,1.4,�k��,2.7,�k��,25.9,84.7,0,0,0.5,50.5
2020-09-07T04:46:00+09:00,1.5,�k��,3,�k��,25.8,84.7,0,0,0.5,50.5
2020-09-07T04:47:00+09:00,1.5,�k��,3,�k��,25.9,84.7,0,0,0.5,50.5
2020-09-07T04:48:00+09:00,1.5,�k��,3,�k��,25.9,84.6,0,0,0.5,50.5
2020-09-07T04:49:00+09:00,1.7,�k��,4.3,���쓌,26.1,84.2,0,0,0.5,50.5
2020-09-07T04:50:00+09:00,1.7,�k��,4.3,���쓌,26.1,83.9,0,0,0.5,50.5
2020-09-07T04:51:00+09:00,1.6,���k��,4.3,���쓌,26.5,82.4,0,0,0.5,50.5
2020-09-07T04:52:00+09:00,1.4,���k��,4.3,���쓌,26.6,81.3,0,0,0.5,50.5
2020-09-07T04:53:00+09:00,1.3,���k��,4.3,���쓌,26.3,81.5,0,0,0.5,50.5
2020-09-07T04:54:00+09:00,1.3,���k��,4.3,���쓌,26.1,82.6,0,0,0.5,50.5
2020-09-07T04:55:00+09:00,1.3,���k��,4.3,���쓌,26,83.4,0,0,0.5,50.5
2020-09-07T04:56:00+09:00,1.3,�k��,4.3,���쓌,26.1,83.7,0,0,0.5,50.5
2020-09-07T04:57:00+09:00,1.4,�k��,4.4,��쐼,26.4,83.1,0,0,0.5,50.5
2020-09-07T04:58:00+09:00,1.5,�k��,4.4,��쐼,26.3,82.7,0,0,0.5,50.5
2020-09-07T04:59:00+09:00,1.6,�k��,4.4,��쐼,26.4,82,0,0,0.5,50.5
2020-09-07T05:00:00+09:00,1.7,�k��,4.4,��쐼,26.4,81.7,0,0,0.5,50.5
2020-09-07T05:01:00+09:00,1.8,���k��,4.4,��쐼,26.2,82.2,0,0,0.5,50.5
2020-09-07T05:02:00+09:00,1.8,�k��,4.4,��쐼,26.2,83,0,0,0.5,50.5
2020-09-07T05:03:00+09:00,1.7,�k��,4.4,��쐼,26.2,82.9,0,0,0.5,50.5
2020-09-07T05:04:00+09:00,1.8,�k�k��,4.4,��쐼,26.5,82.1,0,0,0.5,50.5
2020-09-07T05:05:00+09:00,1.8,�k�k��,4.4,��쐼,26.9,80.7,0,0,0.5,50.5
2020-09-07T05:06:00+09:00,1.9,�k��,4.4,��쐼,26.9,80,0,0,0.5,50.5
2020-09-07T05:07:00+09:00,1.7,�k�k��,4.3,�k�k��,26.8,79.7,0,0,0.5,50.5
2020-09-07T05:08:00+09:00,1.6,�k,4.3,�k�k��,26.9,79.5,0,0,0.5,50.5
2020-09-07T05:09:00+09:00,1.5,�k,4.3,�k�k��,27.2,78.4,0,0,0.5,50.5
2020-09-07T05:10:00+09:00,1.4,�k,4.3,�k�k��,27.4,77.4,0,0,0.5,50.5
2020-09-07T05:11:00+09:00,1.4,�k,4.3,�k�k��,27.4,76.8,0,0,0.5,50.5
2020-09-07T05:12:00+09:00,1.4,�k,4.3,�k�k��,27.4,76.2,0,0,0.5,50.5
2020-09-07T05:13:00+09:00,1.4,�k�k��,4.3,�k�k��,27.4,76.3,0,0,0.5,50.5
2020-09-07T05:14:00+09:00,1.4,�k��,4.3,�k�k��,27.4,76.3,0,0,0.5,50.5
2020-09-07T05:15:00+09:00,1.4,�k��,4.3,�k�k��,27.3,76.3,0,0,0.5,50.5
2020-09-07T05:16:00+09:00,1.4,�k��,3.4,�k��,27.3,76.5,0,0,0.5,50.5
2020-09-07T05:17:00+09:00,1.4,���k��,3.4,�k��,27.3,76.5,0,0,0.5,50.5
2020-09-07T05:18:00+09:00,1.4,��,3.7,�쓌,27.3,76.7,0,0,0.5,50.5
2020-09-07T05:19:00+09:00,1.6,��,6.5,�쓌,27.3,76.7,0,0,0.5,50.5
2020-09-07T05:20:00+09:00,1.7,��,7.3,��쓌,27.4,76.4,0,0,0.5,50.5
2020-09-07T05:21:00+09:00,1.8,��,7.9,��쓌,27.4,76.1,0,0,0.5,50.5
2020-09-07T05:22:00+09:00,2,��,7.9,��쓌,27.4,76.1,0,0,0.5,50.5
2020-09-07T05:23:00+09:00,2.3,��,7.9,��쓌,27.5,75.6,0,0,0.5,50.5
2020-09-07T05:24:00+09:00,2.5,���쓌,7.9,��쓌,27.7,75,0,0,0.5,50.5
2020-09-07T05:25:00+09:00,2.8,���쓌,7.9,��쓌,27.8,74.5,0,0,0.5,50.5
2020-09-07T05:26:00+09:00,2.9,���쓌,7.9,��쓌,27.9,74.1,0,0,0.5,50.5
2020-09-07T05:27:00+09:00,3,���쓌,7.9,��쓌,27.7,74.4,0,0,0.5,50.5
2020-09-07T05:28:00+09:00,3.1,���쓌,7.9,��쓌,27.7,74.5,0,0,0.5,50.5
2020-09-07T05:29:00+09:00,2.8,���쓌,7.9,��쓌,27.5,75.1,0,0,0.5,50.5
2020-09-07T05:30:00+09:00,2.6,���쓌,7.9,��쓌,27.4,75.6,0,0,0.5,50.5
2020-09-07T05:31:00+09:00,2.7,���쓌,7.5,��쓌,27.4,75.7,0,0,0.5,50.5
2020-09-07T05:32:00+09:00,2.6,���쓌,7.5,��쓌,27.6,75.4,0,0,0.5,50.5
2020-09-07T05:33:00+09:00,2.3,�쓌,7.5,��쓌,27.6,75.3,0,0,0.5,50.5
2020-09-07T05:34:00+09:00,2.2,�쓌,7.3,��,27.5,75.7,0,0,0.5,50.5
2020-09-07T05:35:00+09:00,1.8,�쓌,5.8,��,27.4,76.1,0,0,0.5,50.5
2020-09-07T05:36:00+09:00,1.9,�쓌,5.8,��,27.3,76.6,0,0,0.5,50.5
2020-09-07T05:37:00+09:00,1.8,�쓌,5.8,��,27.3,76.8,0,0,0.5,50.5
2020-09-07T05:38:00+09:00,2,�쓌,6,���쓌,27.4,76.5,0,0,0.5,50.5
2020-09-07T05:39:00+09:00,2.3,�쓌,8,��쓌,27.3,76.7,0,0,0.5,50.5
2020-09-07T05:40:00+09:00,2.5,�쓌,8,��쓌,27.5,76.3,0,0,0.5,50.5
2020-09-07T05:41:00+09:00,2.5,�쓌,8,��쓌,27.5,76.3,0,0,0.5,50.5
2020-09-07T05:42:00+09:00,2.8,�쓌,8,��쓌,27.5,76.1,0,0,0.5,50.5
2020-09-07T05:43:00+09:00,2.8,�쓌,8,��쓌,27.6,75.8,0,0,0.5,50.5
2020-09-07T05:44:00+09:00,3,�쓌,8,��쓌,27.6,75.6,0,0,0.5,50.5
2020-09-07T05:45:00+09:00,3.3,�쓌,8.5,�쓌,27.6,75.5,0,0,0.5,50.5
2020-09-07T05:46:00+09:00,3.2,�쓌,8.5,�쓌,27.5,75.8,0,0,0.5,50.5
2020-09-07T05:47:00+09:00,3.5,�쓌,8.5,�쓌,27.4,76.1,0,0,0.5,50.5
2020-09-07T05:48:00+09:00,3.6,�쓌,9.4,�쓌,27.5,76,0,0,0.5,50.5
2020-09-07T05:49:00+09:00,3.7,�쓌,9.4,�쓌,27.5,75.8,0,0,0.5,50.5
2020-09-07T05:50:00+09:00,3.8,�쓌,9.4,�쓌,27.6,75.6,0,0,0.5,50.5
2020-09-07T05:51:00+09:00,4,�쓌,9.4,�쓌,27.6,75.6,0,0,0.5,50.5
2020-09-07T05:52:00+09:00,4.2,�쓌,12.1,�쓌,27.6,75.6,0,0,0.5,50.5
2020-09-07T05:53:00+09:00,4.4,�쓌,12.1,�쓌,27.7,75.1,0,0,0.5,50.5
2020-09-07T05:54:00+09:00,4.5,�쓌,12.1,�쓌,27.8,74.9,0,0,0.5,50.5
2020-09-07T05:55:00+09:00,4.5,�쓌,12.1,�쓌,27.7,75.1,0,0,0.5,50.5
2020-09-07T05:56:00+09:00,5,�쓌,12.8,���쓌,27.9,74.6,0,0,0.5,50.5
2020-09-07T05:57:00+09:00,5.1,�쓌,12.8,���쓌,28,73.8,0,0,0.5,50.5
2020-09-07T05:58:00+09:00,4.7,�쓌,12.8,���쓌,27.9,73.9,0,0,0.5,50.5
2020-09-07T05:59:00+09:00,4.4,�쓌,12.8,���쓌,27.8,74.3,0,0,0.5,50.5
2020-09-07T06:00:00+09:00,4.2,���쓌,12.8,���쓌,27.6,75,0,0,0.5,50.5
2020-09-07T06:01:00+09:00,3.8,���쓌,12.8,���쓌,27.5,75.4,0,0,0.5,50.5
2020-09-07T06:02:00+09:00,3.5,���쓌,12.8,���쓌,27.6,75.5,0,0,0.5,50.5
2020-09-07T06:03:00+09:00,3.2,���쓌,12.8,���쓌,27.6,75.6,0,0,0.5,50.5
2020-09-07T06:04:00+09:00,3.1,���쓌,12.8,���쓌,27.6,75.7,0,0,0.5,50.5
2020-09-07T06:05:00+09:00,3.1,���쓌,12.8,���쓌,27.6,75.6,0,0,0.5,50.5
2020-09-07T06:06:00+09:00,2.7,���쓌,8.1,�쓌,27.6,75.9,0,0,0.5,50.5